DAL584 KATL-TXKF

Flight info

Callsign DAL584
Flight time 2h 18m
Altitude 35000
Route GAIRY2 IRQ DEDDY Y436 JAINS M326 JIMAC POPOP1
Aircraft A319/M-VGDW/C

Departure

Time 2026-05-06 13:56
Airport Hartsfield Jackson Atlanta International Airport (KATL)

Arrival

Time 2026-05-06 16:14
Airport L.F. Wade International Airport (TXKF)
Time Latitude Longitude Altitude Speed Heading
2026-05-06 13:35 33.63863 -84.42978 1007 ft 0 kts 90°
2026-05-06 13:47 33.63863 -84.42988 1007 ft 2 kts 90°
2026-05-06 13:47 33.63863 -84.43005 1007 ft 2 kts 90°
2026-05-06 13:47 33.63863 -84.43024 1007 ft 2 kts 90°
2026-05-06 13:47 33.63863 -84.43041 1007 ft 2 kts 90°
2026-05-06 13:48 33.63864 -84.43057 1007 ft 2 kts 126°
2026-05-06 13:48 33.63874 -84.43066 1007 ft 0 kts 174°
2026-05-06 13:48 33.63881 -84.43066 1007 ft 1 kts 181°
2026-05-06 13:48 33.63883 -84.43065 1007 ft 0 kts 180°
2026-05-06 13:50 33.63866 -84.43065 1007 ft 6 kts 180°
2026-05-06 13:50 33.63817 -84.43065 1007 ft 7 kts 180°
2026-05-06 13:51 33.63757 -84.43065 1007 ft 9 kts 181°
2026-05-06 13:51 33.63687 -84.43050 1007 ft 10 kts 143°
2026-05-06 13:51 33.63663 -84.42966 1006 ft 12 kts 89°
2026-05-06 13:51 33.63663 -84.42851 1004 ft 14 kts 90°
2026-05-06 13:52 33.63656 -84.42719 1002 ft 17 kts 96°
2026-05-06 13:52 33.63655 -84.42567 999 ft 19 kts 90°
2026-05-06 13:52 33.63654 -84.42395 993 ft 22 kts 90°
2026-05-06 13:52 33.63655 -84.42230 987 ft 17 kts 92°
2026-05-06 13:53 33.63654 -84.42071 981 ft 21 kts 90°
2026-05-06 13:53 33.63655 -84.41883 972 ft 23 kts 90°
2026-05-06 13:53 33.63656 -84.41679 966 ft 25 kts 89°
2026-05-06 13:53 33.63655 -84.41479 962 ft 23 kts 90°
2026-05-06 13:54 33.63654 -84.41285 962 ft 22 kts 90°
2026-05-06 13:54 33.63655 -84.41153 962 ft 15 kts 90°
2026-05-06 13:54 33.63655 -84.41016 959 ft 17 kts 90°
2026-05-06 13:54 33.63609 -84.40906 955 ft 16 kts 178°
2026-05-06 13:55 33.63496 -84.40910 956 ft 16 kts 186°
2026-05-06 13:55 33.63472 -84.40970 958 ft 14 kts 270°
2026-05-06 13:55 33.63471 -84.41405 964 ft 87 kts 270°
2026-05-06 13:55 33.63472 -84.42379 993 ft 146 kts 269°
2026-05-06 13:56 33.63483 -84.43770 1227 ft 175 kts 270°
2026-05-06 13:56 33.63508 -84.45245 1789 ft 186 kts 270°
2026-05-06 13:56 33.63535 -84.46838 2370 ft 198 kts 266°
2026-05-06 13:56 33.63181 -84.48468 2800 ft 215 kts 244°
2026-05-06 13:57 33.62442 -84.50105 3344 ft 232 kts 241°
2026-05-06 13:57 33.61637 -84.51839 4050 ft 243 kts 243°
2026-05-06 13:57 33.60854 -84.53601 4957 ft 244 kts 244°
2026-05-06 13:57 33.60077 -84.55403 5785 ft 246 kts 245°
2026-05-06 13:58 33.59137 -84.57127 6588 ft 253 kts 227°
2026-05-06 13:58 33.57621 -84.58210 7434 ft 264 kts 202°
2026-05-06 13:58 33.55768 -84.58447 8256 ft 274 kts 187°
2026-05-06 13:58 33.53853 -84.58436 8974 ft 279 kts 187°
2026-05-06 13:59 33.51922 -84.58434 9730 ft 281 kts 187°
2026-05-06 13:59 33.49955 -84.58388 10415 ft 293 kts 181°
2026-05-06 13:59 33.47923 -84.57541 10895 ft 329 kts 153°
2026-05-06 13:59 33.46258 -84.55521 11360 ft 362 kts 126°
2026-05-06 14:00 33.45417 -84.52615 11814 ft 387 kts 99°
2026-05-06 14:00 33.45327 -84.49304 12242 ft 406 kts 89°
2026-05-06 14:00 33.45464 -84.45866 12594 ft 424 kts 88°
2026-05-06 14:00 33.45578 -84.42261 12900 ft 442 kts 89°
2026-05-06 14:01 33.45613 -84.38585 13423 ft 451 kts 91°
2026-05-06 14:01 33.45620 -84.34811 14111 ft 457 kts 89°
2026-05-06 14:01 33.45782 -84.30975 14775 ft 463 kts 85°
2026-05-06 14:01 33.46064 -84.27150 15420 ft 468 kts 84°
2026-05-06 14:02 33.46376 -84.23288 16044 ft 473 kts 83°
2026-05-06 14:02 33.46697 -84.19361 16606 ft 478 kts 83°
2026-05-06 14:02 33.47018 -84.15396 17132 ft 483 kts 83°
2026-05-06 14:02 33.47340 -84.11347 17629 ft 487 kts 83°
2026-05-06 14:03 33.47655 -84.07329 18100 ft 492 kts 83°
2026-05-06 14:03 33.47977 -84.03225 18557 ft 495 kts 83°
2026-05-06 14:03 33.48296 -83.99108 19003 ft 498 kts 83°
2026-05-06 14:03 33.48615 -83.94976 19432 ft 501 kts 82°
2026-05-06 14:04 33.48938 -83.90823 19866 ft 504 kts 82°
2026-05-06 14:04 33.49255 -83.86671 20296 ft 506 kts 82°
2026-05-06 14:04 33.49578 -83.82466 20699 ft 509 kts 82°
2026-05-06 14:04 33.49899 -83.78243 21094 ft 511 kts 82°
2026-05-06 14:05 33.50222 -83.74002 21496 ft 513 kts 82°
2026-05-06 14:05 33.50536 -83.69804 21895 ft 515 kts 82°
2026-05-06 14:05 33.50862 -83.65512 22288 ft 516 kts 81°
2026-05-06 14:05 33.51325 -83.61253 22653 ft 517 kts 78°
2026-05-06 14:06 33.51901 -83.56991 23040 ft 519 kts 77°
2026-05-06 14:06 33.52499 -83.52746 23369 ft 521 kts 77°
2026-05-06 14:06 33.53101 -83.48494 23704 ft 524 kts 77°
2026-05-06 14:06 33.53706 -83.44180 24040 ft 526 kts 77°
2026-05-06 14:07 33.54305 -83.39880 24330 ft 529 kts 77°
2026-05-06 14:07 33.54910 -83.35519 24627 ft 531 kts 77°
2026-05-06 14:07 33.55517 -83.31122 24914 ft 533 kts 77°
2026-05-06 14:07 33.56108 -83.26796 25298 ft 532 kts 77°
2026-05-06 14:08 33.56702 -83.22453 25737 ft 529 kts 77°
2026-05-06 14:08 33.57297 -83.18077 26112 ft 529 kts 77°
2026-05-06 14:08 33.57883 -83.13760 26501 ft 528 kts 77°
2026-05-06 14:08 33.58471 -83.09431 26861 ft 528 kts 77°
2026-05-06 14:09 33.59051 -83.05123 27253 ft 526 kts 77°
2026-05-06 14:09 33.59633 -83.00800 27644 ft 525 kts 77°
2026-05-06 14:09 33.60216 -82.96453 28020 ft 525 kts 77°
2026-05-06 14:09 33.60788 -82.92197 28390 ft 524 kts 77°
2026-05-06 14:10 33.61371 -82.87849 28752 ft 524 kts 77°
2026-05-06 14:10 33.61940 -82.83589 29119 ft 523 kts 77°
2026-05-06 14:10 33.62510 -82.79301 29523 ft 522 kts 77°
2026-05-06 14:10 33.63079 -82.74999 29895 ft 521 kts 77°
2026-05-06 14:11 33.63647 -82.70715 30214 ft 522 kts 77°
2026-05-06 14:11 33.64219 -82.66401 30500 ft 523 kts 77°
2026-05-06 14:11 33.64784 -82.62099 30803 ft 524 kts 77°
2026-05-06 14:11 33.65348 -82.57795 31145 ft 523 kts 77°
2026-05-06 14:12 33.65919 -82.53457 31452 ft 524 kts 76°
2026-05-06 14:12 33.66483 -82.49127 31730 ft 525 kts 77°
2026-05-06 14:12 33.67049 -82.44773 32025 ft 526 kts 76°
2026-05-06 14:12 33.67603 -82.40502 32306 ft 526 kts 76°
2026-05-06 14:13 33.68166 -82.36141 32625 ft 526 kts 77°
2026-05-06 14:13 33.68723 -82.31827 32894 ft 526 kts 77°
2026-05-06 14:13 33.69279 -82.27448 33146 ft 527 kts 78°
2026-05-06 14:13 33.69591 -82.23050 33344 ft 532 kts 85°
2026-05-06 14:14 33.69516 -82.18612 33594 ft 535 kts 92°
2026-05-06 14:14 33.69046 -82.14190 33847 ft 537 kts 99°
2026-05-06 14:14 33.68167 -82.09804 34098 ft 538 kts 107°
2026-05-06 14:14 33.66916 -82.05617 34338 ft 537 kts 113°
2026-05-06 14:15 33.65397 -82.01497 34578 ft 537 kts 116°
2026-05-06 14:15 33.63848 -81.97483 34789 ft 538 kts 116°
2026-05-06 14:15 33.62262 -81.93371 34976 ft 539 kts 115°
2026-05-06 14:15 33.60696 -81.89293 35023 ft 540 kts 115°
2026-05-06 14:16 33.57612 -81.81120 35033 ft 541 kts 115°
2026-05-06 14:16 33.54536 -81.72938 35038 ft 540 kts 115°
2026-05-06 14:17 33.51454 -81.64741 35038 ft 539 kts 115°
2026-05-06 14:17 33.48375 -81.56559 35033 ft 540 kts 114°
2026-05-06 14:18 33.45285 -81.48380 35034 ft 540 kts 115°
2026-05-06 14:18 33.42198 -81.40233 35036 ft 540 kts 114°
2026-05-06 14:19 33.39090 -81.32037 35031 ft 541 kts 115°
2026-05-06 14:19 33.35994 -81.23909 35037 ft 540 kts 115°
2026-05-06 14:20 33.32877 -81.15748 35035 ft 540 kts 115°
2026-05-06 14:20 33.29757 -81.07588 35033 ft 540 kts 115°
2026-05-06 14:21 33.26652 -80.99472 35034 ft 540 kts 115°
2026-05-06 14:21 33.23506 -80.91294 35036 ft 540 kts 115°
2026-05-06 14:22 33.20392 -80.83209 35035 ft 540 kts 115°
2026-05-06 14:22 33.17250 -80.75060 35036 ft 540 kts 115°
2026-05-06 14:23 33.14115 -80.66969 35041 ft 539 kts 115°
2026-05-06 14:23 33.10979 -80.58881 35040 ft 540 kts 115°
2026-05-06 14:24 33.07821 -80.50759 35046 ft 539 kts 114°
2026-05-06 14:24 33.04676 -80.42688 35049 ft 539 kts 115°
2026-05-06 14:25 33.01530 -80.34632 35050 ft 538 kts 115°
2026-05-06 14:25 32.98364 -80.26533 35050 ft 538 kts 115°
2026-05-06 14:26 32.95219 -80.18528 35055 ft 538 kts 115°
2026-05-06 14:26 32.92047 -80.10461 35061 ft 538 kts 115°
2026-05-06 14:27 32.88945 -80.02411 35060 ft 537 kts 111°
2026-05-06 14:27 32.86142 -79.94170 35066 ft 537 kts 111°
2026-05-06 14:28 32.83394 -79.85972 35064 ft 537 kts 110°
2026-05-06 14:28 32.80623 -79.77761 35067 ft 536 kts 110°
2026-05-06 14:29 32.77837 -79.69535 35063 ft 537 kts 110°
2026-05-06 14:29 32.75048 -79.61327 35065 ft 536 kts 111°
2026-05-06 14:30 32.72310 -79.53148 35058 ft 536 kts 109°
2026-05-06 14:30 32.69724 -79.44910 35059 ft 535 kts 108°
2026-05-06 14:31 32.67144 -79.36672 35062 ft 535 kts 109°
2026-05-06 14:31 32.64520 -79.28378 35050 ft 536 kts 109°
2026-05-06 14:32 32.61893 -79.20136 35065 ft 535 kts 109°
2026-05-06 14:32 32.59278 -79.11932 35059 ft 535 kts 109°
2026-05-06 14:33 32.56662 -79.03741 35049 ft 534 kts 109°
2026-05-06 14:33 32.54030 -78.95522 35063 ft 533 kts 109°
2026-05-06 14:34 32.51397 -78.87324 35064 ft 532 kts 109°
2026-05-06 14:34 32.48768 -78.79185 35059 ft 532 kts 109°
2026-05-06 14:35 32.46136 -78.71057 35068 ft 532 kts 109°
2026-05-06 14:35 32.43493 -78.62897 35073 ft 531 kts 108°
2026-05-06 14:36 32.40860 -78.54785 35071 ft 530 kts 108°
2026-05-06 14:36 32.38216 -78.46658 35072 ft 530 kts 108°
2026-05-06 14:37 32.35575 -78.38565 35072 ft 530 kts 108°
2026-05-06 14:37 32.32913 -78.30428 35069 ft 529 kts 109°
2026-05-06 14:38 32.30274 -78.22397 35071 ft 527 kts 109°
2026-05-06 14:38 32.27630 -78.14315 35076 ft 528 kts 109°
2026-05-06 14:39 32.24977 -78.06278 35072 ft 527 kts 109°
2026-05-06 14:39 32.22312 -77.98227 35073 ft 526 kts 110°
2026-05-06 14:40 32.19019 -77.90533 35075 ft 528 kts 121°
2026-05-06 14:40 32.14642 -77.83684 35075 ft 527 kts 133°
2026-05-06 14:41 32.09333 -77.77699 35076 ft 526 kts 140°
2026-05-06 14:41 32.03891 -77.72021 35074 ft 526 kts 140°
2026-05-06 14:42 31.98448 -77.66244 35077 ft 526 kts 139°
2026-05-06 14:42 31.93015 -77.60477 35072 ft 526 kts 139°
2026-05-06 14:43 31.87600 -77.54742 35070 ft 526 kts 139°
2026-05-06 14:43 31.82142 -77.48961 35074 ft 527 kts 139°
2026-05-06 14:44 31.76699 -77.43212 35076 ft 528 kts 139°
2026-05-06 14:45 31.68507 -77.34556 35078 ft 527 kts 140°
2026-05-06 14:45 31.63057 -77.28822 35082 ft 527 kts 140°
2026-05-06 14:46 31.57606 -77.23104 35085 ft 526 kts 140°
2026-05-06 14:46 31.52164 -77.17398 35083 ft 527 kts 139°
2026-05-06 14:47 31.46699 -77.11665 35089 ft 526 kts 139°
2026-05-06 14:47 31.41534 -77.05637 35078 ft 527 kts 126°
2026-05-06 14:47 31.39581 -77.02072 35081 ft 525 kts 115°
2026-05-06 14:48 31.38176 -76.98175 35092 ft 520 kts 103°
2026-05-06 14:48 31.37360 -76.94099 35088 ft 512 kts 92°
2026-05-06 14:48 31.37138 -76.89967 35091 ft 504 kts 82°
2026-05-06 14:49 31.38081 -76.82022 35097 ft 493 kts 71°
2026-05-06 14:49 31.39393 -76.74140 35098 ft 495 kts 72°
2026-05-06 14:50 31.40642 -76.66254 35095 ft 495 kts 72°
2026-05-06 14:50 31.41853 -76.58316 35098 ft 494 kts 72°
2026-05-06 14:51 31.43035 -76.50463 35093 ft 494 kts 72°
2026-05-06 14:51 31.44215 -76.42572 35099 ft 495 kts 72°
2026-05-06 14:52 31.45396 -76.34624 35099 ft 494 kts 73°
2026-05-06 14:52 31.46558 -76.26748 35100 ft 494 kts 73°
2026-05-06 14:53 31.47729 -76.18815 35101 ft 494 kts 73°
2026-05-06 14:53 31.48883 -76.10951 35100 ft 494 kts 73°
2026-05-06 14:54 31.50039 -76.03017 35106 ft 494 kts 73°
2026-05-06 14:54 31.51190 -75.95103 35106 ft 494 kts 73°
2026-05-06 14:55 31.52333 -75.87199 35107 ft 495 kts 73°
2026-05-06 14:55 31.53475 -75.79272 35106 ft 494 kts 73°
2026-05-06 14:56 31.54608 -75.71369 35107 ft 494 kts 72°
2026-05-06 14:56 31.55738 -75.63446 35108 ft 496 kts 72°
2026-05-06 14:57 31.56861 -75.55531 35111 ft 494 kts 72°
2026-05-06 14:57 31.57983 -75.47608 35111 ft 495 kts 72°
2026-05-06 14:58 31.59103 -75.39653 35111 ft 494 kts 72°
2026-05-06 14:58 31.60215 -75.31723 35109 ft 495 kts 72°
2026-05-06 14:59 31.61325 -75.23764 35113 ft 496 kts 72°
2026-05-06 14:59 31.62427 -75.15810 35114 ft 495 kts 72°
2026-05-06 15:00 31.63529 -75.07864 35116 ft 496 kts 71°
2026-05-06 15:00 31.64616 -74.99937 35118 ft 495 kts 71°
2026-05-06 15:01 31.65706 -74.91982 35119 ft 495 kts 71°
2026-05-06 15:01 31.66787 -74.84045 35120 ft 493 kts 71°
2026-05-06 15:02 31.67872 -74.76066 35125 ft 493 kts 71°
2026-05-06 15:02 31.68936 -74.68172 35126 ft 493 kts 71°
2026-05-06 15:03 31.70006 -74.60232 35139 ft 494 kts 71°
2026-05-06 15:03 31.71063 -74.52306 35148 ft 496 kts 71°
2026-05-06 15:04 31.72137 -74.44255 35149 ft 502 kts 71°
2026-05-06 15:04 31.73212 -74.36131 35150 ft 503 kts 72°
2026-05-06 15:05 31.74269 -74.28075 35153 ft 502 kts 72°
2026-05-06 15:05 31.75333 -74.19953 35155 ft 502 kts 72°
2026-05-06 15:06 31.76386 -74.11872 35155 ft 502 kts 72°
2026-05-06 15:06 31.77436 -74.03774 35159 ft 500 kts 72°
2026-05-06 15:07 31.78477 -73.95719 35158 ft 499 kts 72°
2026-05-06 15:07 31.79508 -73.87700 35158 ft 499 kts 72°
2026-05-06 15:08 31.80531 -73.79668 35158 ft 498 kts 72°
2026-05-06 15:08 31.81547 -73.71632 35157 ft 497 kts 72°
2026-05-06 15:09 31.82554 -73.63663 35151 ft 497 kts 72°
2026-05-06 15:09 31.83563 -73.55615 35147 ft 496 kts 72°
2026-05-06 15:10 31.84563 -73.47607 35148 ft 496 kts 72°
2026-05-06 15:10 31.85557 -73.39616 35149 ft 497 kts 72°
2026-05-06 15:11 31.86548 -73.31595 35150 ft 496 kts 73°
2026-05-06 15:11 31.87533 -73.23605 35151 ft 497 kts 73°
2026-05-06 15:12 31.88506 -73.15623 35154 ft 495 kts 73°
2026-05-06 15:12 31.89477 -73.07626 35155 ft 493 kts 73°
2026-05-06 15:13 31.90445 -72.99643 35156 ft 493 kts 73°
2026-05-06 15:13 31.91399 -72.91723 35159 ft 493 kts 73°
2026-05-06 15:14 31.92352 -72.83752 35160 ft 493 kts 73°
2026-05-06 15:14 31.93307 -72.75744 35160 ft 494 kts 73°
2026-05-06 15:15 31.94244 -72.67820 35159 ft 492 kts 73°
2026-05-06 15:15 31.95187 -72.59824 35158 ft 492 kts 73°
2026-05-06 15:16 31.96113 -72.51905 35158 ft 491 kts 73°
2026-05-06 15:16 31.97040 -72.43938 35157 ft 492 kts 73°
2026-05-06 15:17 31.97966 -72.35980 35157 ft 492 kts 73°
2026-05-06 15:17 31.98880 -72.28034 35156 ft 492 kts 73°
2026-05-06 15:18 31.99794 -72.20047 35162 ft 491 kts 73°
2026-05-06 15:18 32.00695 -72.12133 35160 ft 490 kts 73°
2026-05-06 15:19 32.01598 -72.04188 35156 ft 491 kts 73°
2026-05-06 15:19 32.02490 -71.96270 35162 ft 491 kts 73°
2026-05-06 15:20 32.03386 -71.88268 35158 ft 491 kts 73°
2026-05-06 15:20 32.04271 -71.80336 35157 ft 492 kts 74°
2026-05-06 15:21 32.05117 -71.72370 35161 ft 491 kts 74°
2026-05-06 15:21 32.05919 -71.64364 35162 ft 492 kts 74°
2026-05-06 15:22 32.06713 -71.56416 35167 ft 491 kts 75°
2026-05-06 15:22 32.07512 -71.48422 35163 ft 492 kts 75°
2026-05-06 15:23 32.08310 -71.40394 35154 ft 491 kts 75°
2026-05-06 15:23 32.09098 -71.32433 35162 ft 492 kts 75°
2026-05-06 15:24 32.09880 -71.24468 35161 ft 492 kts 75°
2026-05-06 15:24 32.10660 -71.16446 35160 ft 490 kts 75°
2026-05-06 15:25 32.11432 -71.08510 35158 ft 491 kts 76°
2026-05-06 15:25 32.12202 -71.00494 35162 ft 490 kts 75°
2026-05-06 15:26 32.12966 -70.92513 35152 ft 491 kts 75°
2026-05-06 15:26 32.13720 -70.84568 35171 ft 490 kts 75°
2026-05-06 15:27 32.14474 -70.76601 35176 ft 491 kts 75°
2026-05-06 15:27 32.15224 -70.68598 35163 ft 492 kts 75°
2026-05-06 15:28 32.15965 -70.60634 35165 ft 491 kts 76°
2026-05-06 15:28 32.16701 -70.52663 35162 ft 491 kts 76°
2026-05-06 15:29 32.17433 -70.44698 35160 ft 491 kts 76°
2026-05-06 15:29 32.18160 -70.36706 35165 ft 490 kts 76°
2026-05-06 15:30 32.18885 -70.28713 35163 ft 490 kts 76°
2026-05-06 15:30 32.19601 -70.20764 35163 ft 492 kts 76°
2026-05-06 15:31 32.20314 -70.12747 35162 ft 492 kts 76°
2026-05-06 15:31 32.21023 -70.04745 35162 ft 492 kts 76°
2026-05-06 15:32 32.22075 -69.92759 35163 ft 490 kts 76°
2026-05-06 15:32 32.22769 -69.84763 35157 ft 491 kts 76°
2026-05-06 15:33 32.23460 -69.76783 35162 ft 491 kts 76°
2026-05-06 15:33 32.24140 -69.68840 35160 ft 490 kts 76°
2026-05-06 15:34 32.24822 -69.60843 35159 ft 490 kts 76°
2026-05-06 15:34 32.25493 -69.52882 35168 ft 490 kts 76°
2026-05-06 15:35 32.26163 -69.44881 35172 ft 489 kts 76°
2026-05-06 15:35 32.26825 -69.36933 35174 ft 489 kts 76°
2026-05-06 15:36 32.27482 -69.28970 35180 ft 489 kts 77°
2026-05-06 15:36 32.28132 -69.21008 35178 ft 488 kts 77°
2026-05-06 15:37 32.28776 -69.13085 35181 ft 487 kts 77°
2026-05-06 15:37 32.29417 -69.05132 35183 ft 487 kts 77°
2026-05-06 15:38 32.30054 -68.97173 35182 ft 487 kts 77°
2026-05-06 15:38 32.30686 -68.89230 35187 ft 487 kts 77°
2026-05-06 15:39 32.31313 -68.81262 35184 ft 487 kts 77°
2026-05-06 15:39 32.31930 -68.73341 35183 ft 487 kts 77°
2026-05-06 15:40 32.32544 -68.65400 35186 ft 486 kts 77°
2026-05-06 15:40 32.33155 -68.57454 35184 ft 486 kts 77°
2026-05-06 15:41 32.33760 -68.49538 35185 ft 485 kts 77°
2026-05-06 15:41 32.34357 -68.41647 35182 ft 485 kts 77°
2026-05-06 15:42 32.34950 -68.33740 35179 ft 484 kts 78°
2026-05-06 15:42 32.35464 -68.25777 35181 ft 487 kts 81°
2026-05-06 15:43 32.35316 -68.17790 35181 ft 493 kts 88°
2026-05-06 15:43 32.34674 -68.09738 35179 ft 494 kts 89°
2026-05-06 15:44 32.34003 -68.01666 35180 ft 494 kts 89°
2026-05-06 15:44 32.33335 -67.93587 35179 ft 494 kts 89°
2026-05-06 15:45 32.32676 -67.85568 35177 ft 494 kts 89°
2026-05-06 15:45 32.32007 -67.77511 35178 ft 493 kts 89°
2026-05-06 15:46 32.31340 -67.69486 35177 ft 493 kts 89°
2026-05-06 15:46 32.30665 -67.61459 35177 ft 493 kts 89°
2026-05-06 15:47 32.29985 -67.53413 35177 ft 492 kts 89°
2026-05-06 15:47 32.29297 -67.45356 35178 ft 493 kts 89°
2026-05-06 15:48 32.28610 -67.37364 35178 ft 493 kts 89°
2026-05-06 15:48 32.27913 -67.29287 35177 ft 493 kts 90°
2026-05-06 15:49 32.27216 -67.21274 35178 ft 493 kts 90°
2026-05-06 15:49 32.26510 -67.13236 35104 ft 489 kts 90°
2026-05-06 15:50 32.26161 -67.09309 34606 ft 486 kts 90°
2026-05-06 15:50 32.25809 -67.05334 33757 ft 487 kts 90°
2026-05-06 15:50 32.25455 -67.01341 33024 ft 488 kts 90°
2026-05-06 15:50 32.25102 -66.97389 32323 ft 489 kts 90°
2026-05-06 15:51 32.24747 -66.93424 31604 ft 490 kts 90°
2026-05-06 15:51 32.24389 -66.89443 30871 ft 490 kts 91°
2026-05-06 15:51 32.24030 -66.85474 30118 ft 491 kts 91°
2026-05-06 15:51 32.23669 -66.81485 29267 ft 492 kts 91°
2026-05-06 15:52 32.23304 -66.77485 28530 ft 489 kts 91°
2026-05-06 15:52 32.22940 -66.73528 28001 ft 482 kts 92°
2026-05-06 15:52 32.22579 -66.69626 27519 ft 474 kts 92°
2026-05-06 15:52 32.22225 -66.65797 27055 ft 467 kts 92°
2026-05-06 15:53 32.21879 -66.62051 26591 ft 460 kts 92°
2026-05-06 15:53 32.21537 -66.58347 26139 ft 454 kts 92°
2026-05-06 15:53 32.21197 -66.54667 25685 ft 448 kts 92°
2026-05-06 15:53 32.20861 -66.51024 25212 ft 442 kts 92°
2026-05-06 15:54 32.20529 -66.47468 24743 ft 438 kts 92°
2026-05-06 15:54 32.20197 -66.43916 24310 ft 433 kts 92°
2026-05-06 15:54 32.19869 -66.40456 24103 ft 426 kts 93°
2026-05-06 15:54 32.19523 -66.36951 23464 ft 429 kts 93°
2026-05-06 15:55 32.19175 -66.33477 22880 ft 429 kts 94°
2026-05-06 15:55 32.18823 -66.29982 22355 ft 426 kts 94°
2026-05-06 15:55 32.18474 -66.26527 21865 ft 423 kts 94°
2026-05-06 15:55 32.18128 -66.23101 21384 ft 420 kts 95°
2026-05-06 15:56 32.17787 -66.19731 20925 ft 416 kts 95°
2026-05-06 15:56 32.17447 -66.16367 20463 ft 413 kts 95°
2026-05-06 15:56 32.17106 -66.13007 19996 ft 410 kts 95°
2026-05-06 15:56 32.16769 -66.09682 19522 ft 407 kts 95°
2026-05-06 15:57 32.16436 -66.06401 19054 ft 404 kts 95°
2026-05-06 15:57 32.16105 -66.03153 18584 ft 401 kts 95°
2026-05-06 15:57 32.15770 -65.99878 18105 ft 399 kts 96°
2026-05-06 15:57 32.15438 -65.96649 17631 ft 396 kts 96°
2026-05-06 15:58 32.15107 -65.93436 17151 ft 394 kts 95°
2026-05-06 15:58 32.14779 -65.90263 16679 ft 397 kts 95°
2026-05-06 15:58 32.14444 -65.87020 16189 ft 396 kts 96°
2026-05-06 15:58 32.14112 -65.83800 15694 ft 394 kts 96°
2026-05-06 15:59 32.13783 -65.80626 15212 ft 391 kts 96°
2026-05-06 15:59 32.13455 -65.77478 14727 ft 388 kts 96°
2026-05-06 15:59 32.13129 -65.74342 14234 ft 386 kts 96°
2026-05-06 15:59 32.12801 -65.71209 13736 ft 383 kts 96°
2026-05-06 16:00 32.12472 -65.68082 13239 ft 380 kts 96°
2026-05-06 16:00 32.12242 -65.65020 12754 ft 376 kts 87°
2026-05-06 16:00 32.12695 -65.62012 12304 ft 368 kts 69°
2026-05-06 16:00 32.13771 -65.59332 11909 ft 361 kts 59°
2026-05-06 16:01 32.14969 -65.56770 11509 ft 356 kts 58°
2026-05-06 16:01 32.16169 -65.54228 11103 ft 351 kts 59°
2026-05-06 16:01 32.17329 -65.51755 10711 ft 346 kts 59°
2026-05-06 16:01 32.18480 -65.49279 10434 ft 335 kts 59°
2026-05-06 16:02 32.19547 -65.46966 10314 ft 307 kts 59°
2026-05-06 16:02 32.20524 -65.44842 10208 ft 289 kts 59°
2026-05-06 16:02 32.21478 -65.42770 10097 ft 288 kts 59°
2026-05-06 16:02 32.22432 -65.40693 9928 ft 288 kts 59°
2026-05-06 16:03 32.23384 -65.38622 9603 ft 287 kts 59°
2026-05-06 16:03 32.24330 -65.36553 9292 ft 285 kts 59°
2026-05-06 16:03 32.25264 -65.34515 8995 ft 282 kts 60°
2026-05-06 16:03 32.26189 -65.32491 8699 ft 280 kts 60°
2026-05-06 16:04 32.27108 -65.30482 8405 ft 277 kts 60°
2026-05-06 16:04 32.28017 -65.28490 8112 ft 275 kts 60°
2026-05-06 16:04 32.28919 -65.26511 7820 ft 273 kts 60°
2026-05-06 16:04 32.29820 -65.24538 7527 ft 270 kts 60°
2026-05-06 16:05 32.30701 -65.22605 7242 ft 268 kts 60°
2026-05-06 16:05 32.31588 -65.20661 6951 ft 266 kts 60°
2026-05-06 16:05 32.32457 -65.18753 6666 ft 264 kts 61°
2026-05-06 16:05 32.33319 -65.16861 6388 ft 262 kts 61°
2026-05-06 16:06 32.34181 -65.14966 6110 ft 260 kts 61°
2026-05-06 16:06 32.35028 -65.13102 5832 ft 258 kts 61°
2026-05-06 16:06 32.35879 -65.11227 5551 ft 256 kts 61°
2026-05-06 16:06 32.36708 -65.09399 5274 ft 254 kts 60°
2026-05-06 16:07 32.37550 -65.07546 4986 ft 253 kts 61°
2026-05-06 16:07 32.38374 -65.05730 4696 ft 249 kts 60°
2026-05-06 16:07 32.39170 -65.03971 4515 ft 235 kts 60°
2026-05-06 16:07 32.39900 -65.02355 4464 ft 215 kts 60°
2026-05-06 16:08 32.40596 -65.00816 4392 ft 205 kts 60°
2026-05-06 16:08 32.41247 -64.99360 4309 ft 200 kts 64°
2026-05-06 16:08 32.41524 -64.97759 4239 ft 201 kts 89°
2026-05-06 16:08 32.41304 -64.96083 4004 ft 208 kts 98°
2026-05-06 16:09 32.41007 -64.94416 3733 ft 208 kts 98°
2026-05-06 16:09 32.40704 -64.92746 3505 ft 207 kts 98°
2026-05-06 16:09 32.40412 -64.91099 3283 ft 206 kts 98°
2026-05-06 16:09 32.40125 -64.89439 3076 ft 203 kts 97°
2026-05-06 16:10 32.39855 -64.87880 3031 ft 185 kts 97°
2026-05-06 16:10 32.39600 -64.86404 2979 ft 183 kts 97°
2026-05-06 16:10 32.39352 -64.84967 2895 ft 175 kts 96°
2026-05-06 16:10 32.39109 -64.83557 2764 ft 173 kts 97°
2026-05-06 16:11 32.38871 -64.82166 2491 ft 174 kts 96°
2026-05-06 16:11 32.38633 -64.80774 2213 ft 173 kts 97°
2026-05-06 16:11 32.38391 -64.79379 1952 ft 173 kts 96°
2026-05-06 16:11 32.38151 -64.77994 1685 ft 173 kts 96°
2026-05-06 16:12 32.37911 -64.76599 1410 ft 168 kts 96°
2026-05-06 16:12 32.37683 -64.75300 1156 ft 159 kts 97°
2026-05-06 16:12 32.37466 -64.74067 931 ft 148 kts 97°
2026-05-06 16:12 32.37258 -64.72868 721 ft 150 kts 97°
2026-05-06 16:13 32.37050 -64.71660 505 ft 149 kts 97°
2026-05-06 16:13 32.36853 -64.70479 286 ft 142 kts 98°
2026-05-06 16:13 32.36658 -64.69358 70 ft 134 kts 98°
2026-05-06 16:13 32.36489 -64.68355 21 ft 107 kts 101°
2026-05-06 16:14 32.36373 -64.67687 28 ft 58 kts 102°
2026-05-06 16:14 32.36306 -64.67286 24 ft 42 kts 102°
2026-05-06 16:14 32.36303 -64.67059 23 ft 12 kts 65°
2026-05-06 16:14 32.36340 -64.66965 24 ft 13 kts 66°
2026-05-06 16:15 32.36386 -64.66949 25 ft 7 kts 294°
2026-05-06 16:15 32.36401 -64.67030 25 ft 13 kts 281°
2026-05-06 16:15 32.36421 -64.67143 25 ft 17 kts 281°
2026-05-06 16:15 32.36449 -64.67304 27 ft 24 kts 282°
2026-05-06 16:16 32.36482 -64.67493 29 ft 23 kts 281°
2026-05-06 16:16 32.36514 -64.67680 31 ft 24 kts 282°
2026-05-06 16:16 32.36552 -64.67899 31 ft 29 kts 282°
2026-05-06 16:16 32.36593 -64.68138 27 ft 30 kts 281°
2026-05-06 16:17 32.36636 -64.68385 24 ft 30 kts 282°
2026-05-06 16:17 32.36677 -64.68625 24 ft 29 kts 281°
2026-05-06 16:17 32.36715 -64.68849 24 ft 23 kts 278°
2026-05-06 16:17 32.36678 -64.69009 24 ft 21 kts 249°
2026-05-06 16:18 32.36613 -64.69187 22 ft 28 kts 247°
2026-05-06 16:18 32.36532 -64.69416 22 ft 30 kts 247°
2026-05-06 16:18 32.36450 -64.69649 21 ft 30 kts 247°
2026-05-06 16:18 32.36372 -64.69870 24 ft 28 kts 248°
2026-05-06 16:19 32.36295 -64.70084 24 ft 26 kts 246°
2026-05-06 16:19 32.36296 -64.70205 24 ft 11 kts 333°
2026-05-06 16:19 32.36317 -64.70239 23 ft 5 kts 250°
2026-05-06 16:19 32.36298 -64.70295 22 ft 8 kts 248°
2026-05-06 16:20 32.36285 -64.70332 22 ft 3 kts 248°
2026-05-06 16:20 32.36285 -64.70333 22 ft 0 kts 248°